COSMOS 2434 (721)

Last updated on Sat Sep 19 2026 00:03:24 GMT+0000 (Coordinated Universal Time)

1 32393U 07065A 26261.11346348 .00000000 00000+0 00000+0 0 9993 2 32393 64.3188 188.7833 0001751 40.2628 67.6000 2.13101315145754
UTC large
Height (km)
Speed (km/s)
/
Latitude / Longitude
Inclination (degrees)
Orbital Period (minutes)
Azimuth
Elevation
Range (km)
Doppler Factor

Next 0 passes for location: London (51.5072 / 0.1276)

No passes found over London.
COSMOS 2434 (721)